Stations météo

réclame
Mon MeteoGroup
Noervenich/Flugplatz, Allemagne (10502): Température de l'air & dewpoint: 12.11.2018 05:00:00 - 18.11.2018 05:00:00 (CET)Noervenich/Flugplatz, Allemagne (10502): Vitesse du vent & gusts: 12.11.2018 05:00:00 - 18.11.2018 05:00:00 (CET)Noervenich/Flugplatz, Allemagne (10502): Direction du vent: 12.11.2018 05:00:00 - 18.11.2018 05:00:00 (CET)Noervenich/Flugplatz, Allemagne (10502): reduced air pressure: 12.11.2018 05:00:00 - 18.11.2018 05:00:00 (CET)Noervenich/Flugplatz, Allemagne (10502): visibility: 12.11.2018 05:00:00 - 18.11.2018 05:00:00 (CET)
Date & Time tt [°C] td [°C] ff [km/h] ff [knt] fx [km/h] fx [knt] dd ppp [hPa] vv [km]
18.11.2018 05:00:00 -0,7 -3,0 7 4 - - S 1030,3 9
18.11.2018 04:00:00 0,5 -2,7 7 4 - - SE 1030,2 10
18.11.2018 03:00:00 1,6 -3,1 7 4 - - ESE 1030,3 10
18.11.2018 02:00:00 1,5 -3,0 7 4 - - SE 1030,2 11
18.11.2018 01:00:00 0,6 -3,6 7 4 - - SSE 1030,4 11
18.11.2018 00:00:00 2,4 -3,5 7 4 - - ESE 1030,5 12
17.11.2018 23:00:00 3,2 -3,5 7 4 - - SE 1030,3 12
17.11.2018 22:00:00 3,9 -3,5 7 4 - - SE 1030,4 12
17.11.2018 21:00:00 3,5 -3,2 7 4 - - ESE 1030,1 13
17.11.2018 20:00:00 2,4 -3,9 7 4 - - N 1030,1 14
17.11.2018 19:00:00 6,5 -3,2 18 10 - - E 1029,6 14
17.11.2018 18:00:00 6,0 -3,0 7 4 - - N 1029,6 17
17.11.2018 17:00:00 8,8 -2,9 11 6 - - E 1029,4 16
17.11.2018 16:00:00 10,1 -1,6 7 4 - - E 1029,2 11
17.11.2018 15:00:00 10,1 -0,4 14 8 - - E 1029,2 11
17.11.2018 14:00:00 9,5 -0,1 14 8 - - E 1029,7 12
17.11.2018 13:00:00 8,2 0,4 18 10 - - E 1030,3 15
17.11.2018 12:00:00 6,4 0,4 14 8 - - ESE 1030,8 11
17.11.2018 11:00:00 4,4 0,6 11 6 - - E 1031,1 10
17.11.2018 10:00:00 2,7 0,0 7 4 - - ESE 1030,8 10
17.11.2018 09:00:00 1,1 -0,4 11 6 - - SE 1030,9 9
17.11.2018 08:00:00 0,5 -0,8 11 6 - - SE 1030,5 8
17.11.2018 07:00:00 1,2 -0,5 11 6 - - SE 1030,1 8
17.11.2018 06:00:00 0,5 -0,8 11 6 - - ESE 1030,0 8
17.11.2018 05:00:00 0,9 -0,4 7 4 - - SE 1029,8 8
17.11.2018 04:00:00 1,0 -0,2 7 4 - - ESE 1029,9 8
17.11.2018 03:00:00 1,7 0,0 11 6 - - SE 1030,0 9
17.11.2018 02:00:00 2,3 0,5 7 4 - - SE 1030,0 9
17.11.2018 01:00:00 2,9 0,7 11 6 - - ESE 1029,8 9
17.11.2018 00:00:00 4,4 1,2 7 4 - - SSE 1029,5 10
16.11.2018 23:00:00 4,9 1,6 11 6 - - SE 1029,5 10
16.11.2018 22:00:00 5,1 1,9 11 6 - - SE 1029,5 15
16.11.2018 21:00:00 5,1 1,7 11 6 - - SE 1029,1 15
16.11.2018 20:00:00 5,2 1,7 7 4 - - SSE 1028,9 15
16.11.2018 19:00:00 6,7 1,9 7 4 - - SE 1028,7 15
16.11.2018 18:00:00 7,0 1,9 11 6 - - ESE 1028,5 15
16.11.2018 17:00:00 8,9 1,6 11 6 - - ESE 1028,1 15
16.11.2018 16:00:00 10,2 2,2 14 8 - - ESE 1027,9 15
16.11.2018 15:00:00 10,6 2,5 14 8 - - SE 1027,7 15
16.11.2018 14:00:00 10,6 2,7 14 8 - - ESE 1028,2 15
16.11.2018 13:00:00 10,0 3,0 14 8 - - ESE 1028,3 15
16.11.2018 12:00:00 8,3 3,0 14 8 - - SE 1028,7 15
16.11.2018 11:00:00 7,0 2,8 14 8 - - SE 1029,0 20
16.11.2018 10:00:00 5,5 2,5 11 6 - - SE 1028,7 10
16.11.2018 09:00:00 3,9 2,1 7 4 - - SE 1028,6 10
16.11.2018 08:00:00 3,6 2,0 7 4 - - S 1028,0 10
16.11.2018 07:00:00 4,5 2,8 14 8 - - SSE 1027,5 15
16.11.2018 06:00:00 4,4 2,7 14 8 - - SSE 1027,3 15
16.11.2018 05:00:00 4,4 2,8 18 10 - - SSE 1027,3 20
16.11.2018 04:00:00 4,2 2,9 14 8 - - SSE 1027,1 10
16.11.2018 03:00:00 3,6 2,1 11 6 - - SSE 1027,2 12
16.11.2018 02:00:00 4,3 2,5 15 8 - - SSE 1027,1 10
16.11.2018 01:00:00 4,0 2,4 14 8 - - S 1027,4 15
16.11.2018 00:00:00 3,2 1,6 18 10 - - SSE 1027,1 15
15.11.2018 23:00:00 3,5 2,3 18 10 - - SSE 1026,8 20
15.11.2018 22:00:00 3,3 1,9 14 8 - - SSE 1026,6 20
15.11.2018 21:00:00 3,2 2,0 14 8 - - SSE 1026,3 20
15.11.2018 20:00:00 3,4 2,1 11 6 - - SSE 1026,2 20
15.11.2018 19:00:00 4,0 2,3 14 8 - - SSE 1025,8 20
15.11.2018 18:00:00 4,8 2,7 14 8 - - SE 1025,6 15
15.11.2018 17:00:00 5,9 3,1 14 8 - - ESE 1025,6 18
15.11.2018 16:00:00 7,5 3,6 14 8 - - ESE 1025,5 18
15.11.2018 15:00:00 8,6 3,7 14 8 - - ESE 1025,6 18
15.11.2018 14:00:00 8,7 4,1 14 8 - - ESE 1025,6 18
15.11.2018 13:00:00 8,4 4,2 14 8 - - ESE 1026,0 20
15.11.2018 12:00:00 7,8 4,2 14 8 - - ESE 1026,4 15
15.11.2018 11:00:00 6,7 4,1 11 6 - - SE 1026,7 15
15.11.2018 10:00:00 5,6 3,9 18 10 - - ESE 1026,9 15
15.11.2018 09:00:00 4,2 3,2 11 6 - - ESE 1026,8 15
15.11.2018 08:00:00 3,6 2,8 7 4 - - SSE 1026,6 15
15.11.2018 07:00:00 3,8 2,9 7 4 - - SE 1026,2 15
15.11.2018 06:00:00 3,9 3,0 7 4 - - SSE 1026,1 15
15.11.2018 05:00:00 4,5 3,7 11 6 - - SSE 1026,1 15
15.11.2018 04:00:00 4,5 3,7 11 6 - - SSE 1026,3 15
15.11.2018 03:00:00 4,6 3,8 11 6 - - SSE 1026,5 15
15.11.2018 02:00:00 4,7 4,1 11 6 - - SE 1026,7 12
15.11.2018 01:00:00 4,6 4,0 11 6 - - SE 1026,8 12
15.11.2018 00:00:00 4,4 3,8 11 6 - - SSE 1026,7 12
14.11.2018 23:00:00 4,6 3,9 7 4 - - SSE 1026,6 25
14.11.2018 22:00:00 5,2 4,2 7 4 - - SE 1026,8 30
14.11.2018 21:00:00 6,4 4,9 7 4 - - SE 1026,7 30
14.11.2018 20:00:00 6,9 5,3 7 4 - - SSE 1027,1 30
14.11.2018 19:00:00 7,4 5,7 7 4 - - SE 1027,1 30
14.11.2018 18:00:00 8,3 6,0 7 4 - - N 1027,0 30
14.11.2018 17:00:00 9,6 6,2 7 4 - - ESE 1027,2 30
14.11.2018 16:00:00 11,1 6,6 11 6 - - ESE 1027,6 30
14.11.2018 15:00:00 11,3 6,4 11 6 - - E 1027,6 30
14.11.2018 14:00:00 11,0 6,3 7 4 - - ESE 1028,1 30
14.11.2018 13:00:00 10,4 5,9 14 8 - - SE 1028,5 30
14.11.2018 12:00:00 10,3 5,5 11 6 - - SE 1029,0 30
14.11.2018 11:00:00 9,0 5,0 14 8 - - SSE 1029,7 30
14.11.2018 10:00:00 7,2 4,3 11 6 - - SSE 1029,8 30
14.11.2018 09:00:00 5,3 3,6 7 4 - - SSE 1029,6 30
14.11.2018 08:00:00 4,7 3,5 14 8 - - S 1029,5 30
14.11.2018 07:00:00 5,7 4,3 7 4 - - S 1029,3 30
14.11.2018 06:00:00 5,5 4,3 11 6 - - S 1029,4 30
14.11.2018 05:00:00 4,5 3,6 7 4 - - SE 1029,9 25
14.11.2018 04:00:00 6,8 5,0 7 4 - - SSE 1030,1 25
14.11.2018 03:00:00 7,2 5,0 11 6 - - SSW 1030,2 25
14.11.2018 02:00:00 5,8 4,9 7 4 - - S 1030,4 25
14.11.2018 01:00:00 7,1 5,0 11 6 - - SSW 1030,4 25
14.11.2018 00:00:00 7,9 5,4 11 6 - - SSW 1030,2 25
13.11.2018 23:00:00 8,3 5,5 7 4 - - SSW 1029,8 25
13.11.2018 22:00:00 8,9 5,7 11 6 - - SW 1029,7 10
13.11.2018 21:00:00 8,3 5,4 14 8 - - SW 1029,3 25
13.11.2018 20:00:00 7,3 5,1 11 6 - - SSW 1029,1 25
13.11.2018 19:00:00 9,3 5,4 7 4 - - SSW 1028,5 25
13.11.2018 18:00:00 10,3 5,5 11 6 - - SW 1028,1 25
13.11.2018 17:00:00 - - - - - - - - -
13.11.2018 16:00:00 12,1 5,4 29 16 - - W 1026,3 25
13.11.2018 15:00:00 12,6 6,1 25 14 50 27 W 1025,5 25
13.11.2018 14:00:00 12,7 5,5 29 16 58 31 W 1024,8 20
13.11.2018 13:00:00 12,7 5,3 36 19 - - WSW 1024,3 20
13.11.2018 12:00:00 13,0 6,2 25 14 47 25 WSW 1024,4 20
13.11.2018 11:00:00 12,5 6,1 22 12 - - WSW 1023,8 20
13.11.2018 10:00:00 11,6 6,4 25 14 - - WSW 1023,2 20
13.11.2018 09:00:00 10,5 6,6 14 8 - - WSW 1022,8 20
13.11.2018 08:00:00 10,3 6,3 14 8 - - SW 1021,9 20
13.11.2018 07:00:00 10,6 6,7 11 6 - - SW 1021,1 30
13.11.2018 06:00:00 10,3 6,8 11 6 - - SSW 1020,6 30
13.11.2018 05:00:00 10,1 7,0 7 4 - - SW 1020,4 30
13.11.2018 04:00:00 9,3 7,2 7 4 - - SW 1019,9 20
13.11.2018 03:00:00 9,9 7,5 7 4 - - SW 1019,9 20
13.11.2018 02:00:00 8,9 8,3 4 2 - - SE 1019,3 20
13.11.2018 01:00:00 9,1 8,4 4 2 - - N 1019,7 30
13.11.2018 00:00:00 9,2 8,3 4 2 - - SW 1019,7 30
12.11.2018 23:00:00 9,7 8,4 4 2 - - WSW 1019,2 20
12.11.2018 22:00:00 10,2 8,6 5 3 - - SW 1019,0 10
12.11.2018 21:00:00 9,3 8,5 11 6 - - WNW 1018,7 20
12.11.2018 20:00:00 10,5 9,2 7 4 - - WNW 1018,1 20
12.11.2018 19:00:00 10,9 9,2 11 6 - - WNW 1017,7 20
12.11.2018 18:00:00 11,0 9,4 14 8 - - NW 1016,3 20
12.11.2018 17:00:00 11,1 9,8 11 6 - - NW 1015,3 20
12.11.2018 16:00:00 11,1 9,9 14 8 - - WNW 1014,1 20
12.11.2018 15:00:00 12,2 11,0 14 8 - - WNW 1013,8 15
12.11.2018 14:00:00 14,7 11,7 18 10 - - NW 1012,8 25
12.11.2018 13:00:00 18,6 11,8 14 8 - - SSW 1011,8 25
12.11.2018 12:00:00 17,2 11,4 14 8 - - SSW 1011,7 25
12.11.2018 11:00:00 14,4 11,8 7 4 - - E 1011,8 25
12.11.2018 10:00:00 11,0 10,0 7 4 - - E 1011,8 15
12.11.2018 09:00:00 10,2 9,7 7 4 - - E 1012,2 15
12.11.2018 08:00:00 10,1 9,6 7 4 - - N 1012,5 15
12.11.2018 07:00:00 10,1 9,6 7 4 - - SE 1012,7 8
12.11.2018 06:00:00 10,1 9,5 7 4 - - SSE 1013,0 8
12.11.2018 05:00:00 10,4 9,5 11 6 - - SSE 1013,0 8

tt = Température de l'air
td = dewpoint
ff = Vitesse du vent
fx = gusts
dd = Direction du vent
ppp = reduced air pressure
vv = visibility

stations d'obs. à proximité